QUETZSAT 1

Last updated on March 3, 2021, 6:33 a.m. UTC

1 37826U 11054A   21061.88164493 -.00000250  00000-0  00000-0 0  9998
2 37826   0.0550 301.9593 0002645  51.8680  47.4217  1.00270729 30515
UTC
Height (km)
Latitude
Longitude
Inclination
Orbital Period
UTC large
Height (km)
Speed (km/s)
/
Latitude / Longitude
Inclination (degrees)
Orbital Period (minutes)
Azimuth
Elevation
Range (km)
Doppler Factor
iOS Compass Heading
iOS Angle

Next 30 passes for location: Hong Kong

Rise time Rise Azimuth (degrees) Set time Set Azimuth (degrees) Duration Max altitude (degrees)

No matching passes for this satellites